Imperial, CA

4:01 PM PDT on October 23, 2017 (GMT -0700)
Imperial County

Weather History for KIPL - September, 2013

Change the Weather History Date:

Thursday, September 5, 2013

  Actual Average Record
Temperature  
Mean Temperature 92 °F -  
Max Temperature 108 °F 103 °F 112 °F (1955)
Min Temperature 77 °F 75 °F 62 °F (1961)
Cooling Degree Days 27    
Growing Degree Days 42 (Base 50)    
Moisture  
Dew Point 65 °F    
Average Humidity 45    
Maximum Humidity 76    
Minimum Humidity 21    
Precipitation  
Precipitation 0.00 in - - ()
Sea Level Pressure  
Sea Level Pressure 29.77 in    
Wind  
Wind Speed 4 mph (West)    
Max Wind Speed 12 mph    
Max Gust Speed -    
Visibility 10 miles    
Events      
Averages and records for this station are not official NWS values.
T = Trace of Precipitation, MM = Missing Value Source: NWS Daily Summary

Daily Weather History Graph

Daily Weather History Graph

Search for Another Location

Airport or City:

Trip Planner

Search our weather history database for the weather conditions in past years. The results will help you decide how hot, cold, wet, or windy it might be!

Date:

Astronomy

Sep. 05, 2013 Rise Set
Actual Time 6:19 AM PDT 7:01 PM PDT
Civil Twilight 5:54 AM PDT 7:26 PM PDT
Nautical Twilight 5:25 AM PDT 7:55 PM PDT
Astronomical Twilight 4:55 AM PDT 8:25 PM PDT
Moon 6:32 AM PDT (9/5) 7:00 PM PDT (9/5)
Length of Visible Light 13h 31m
Length of Day
12h 41m
New Moon, 0% of the Moon is Illuminated
Sep 5
New Moon
Sep 12
First Quarter
Sep 19
Full
Sep 26
Last Quarter
Oct 4
New

Hourly Weather History & Observations

Time (PDT) Temp. Heat Index Dew Point Humidity Pressure Visibility Wind Dir Wind Speed Gust Speed Precip Events Conditions
12:53 AM 80.1 °F 83.6 °F 71.1 °F 74% 29.79 in 10.0 mi West 4.6 mph - N/A   Clear
1:53 AM 80.1 °F 83.2 °F 70.0 °F 71% 29.78 in 10.0 mi West 4.6 mph - N/A   Clear
2:53 AM 80.1 °F 83.2 °F 70.0 °F 71% 29.77 in 10.0 mi Calm Calm - N/A   Clear
3:53 AM 80.1 °F 82.7 °F 68.0 °F 67% 29.77 in 10.0 mi Calm Calm - N/A   Clear
4:53 AM 79.0 °F - 68.0 °F 69% 29.77 in 10.0 mi Calm Calm - N/A   Clear
5:53 AM 77.0 °F - 69.1 °F 76% 29.78 in 10.0 mi WSW 3.5 mph - N/A   Clear
6:53 AM 77.0 °F - 68.0 °F 74% 29.80 in 10.0 mi WSW 3.5 mph - N/A   Clear
7:53 AM 82.0 °F 84.5 °F 66.9 °F 60% 29.82 in 10.0 mi Calm Calm - N/A   Clear
8:53 AM 89.1 °F 92.9 °F 68.0 °F 50% 29.82 in 10.0 mi WNW 5.8 mph - N/A   Clear
9:53 AM 95.0 °F 97.9 °F 66.0 °F 38% 29.83 in 10.0 mi North 5.8 mph - N/A   Clear
10:53 AM 98.1 °F 101.2 °F 64.9 °F 34% 29.82 in 10.0 mi NW 5.8 mph - N/A   Clear
11:53 AM 102.0 °F 104.6 °F 63.0 °F 28% 29.81 in 10.0 mi NNE 4.6 mph - N/A   Clear
12:53 PM 102.9 °F 105.5 °F 63.0 °F 27% 29.79 in 10.0 mi Calm Calm - N/A   Clear
1:53 PM 105.1 °F 108.5 °F 64.0 °F 26% 29.75 in 10.0 mi Variable 4.6 mph - N/A   Clear
2:53 PM 106.0 °F 108.6 °F 62.1 °F 24% 29.73 in 10.0 mi West 4.6 mph - N/A   Clear
3:53 PM 107.1 °F 108.1 °F 59.0 °F 21% 29.71 in 10.0 mi West 3.5 mph - N/A   Clear
4:53 PM 107.1 °F 108.1 °F 59.0 °F 21% 29.71 in 10.0 mi WSW 8.1 mph - N/A   Clear
5:53 PM 104.0 °F 105.3 °F 61.0 °F 24% 29.71 in 10.0 mi WSW 11.5 mph - N/A   Clear
6:53 PM 97.0 °F 97.8 °F 62.1 °F 31% 29.72 in 10.0 mi West 8.1 mph - N/A   Clear
7:53 PM 93.0 °F 93.8 °F 62.1 °F 36% 29.73 in 10.0 mi West 8.1 mph - N/A   Clear
8:53 PM 91.9 °F 91.8 °F 61.0 °F 35% 29.74 in 10.0 mi West 8.1 mph - N/A   Clear
9:53 PM 91.0 °F 90.5 °F 60.1 °F 35% 29.75 in 10.0 mi West 6.9 mph - N/A   Clear
10:53 PM 89.1 °F 90.0 °F 63.0 °F 42% 29.75 in 10.0 mi WSW 4.6 mph - N/A   Clear
11:53 PM 87.1 °F 87.8 °F 63.0 °F 44% 29.75 in 10.0 mi West 4.6 mph - N/A   Clear